Time,TemperatureF,DewpointF,PressureIn,WindDirection,WindDirectionDegrees,WindSpeedMPH,WindSpeedGustMPH,Humidity,HourlyPrecipIn,Conditions,Clouds,dailyrainin,SoftwareType,DateUTC
2014-02-06 02:42:00,43.0,39.0,29.98,ENE,70,10.0,16.0,86,-99.99,,,-99.99,,2014-02-06 10:42:00,
2014-02-06 02:53:00,43.0,39.0,29.98,ENE,70,10.0,16.0,86,-99.99,,,-99.99,,2014-02-06 10:53:00,
2014-02-06 03:42:00,43.0,39.0,29.96,East,80,12.0,16.0,86,-99.99,,,-99.99,,2014-02-06 11:42:00,
2014-02-06 03:53:00,43.0,39.0,29.96,East,80,12.0,16.0,86,-99.99,,,-99.99,,2014-02-06 11:53:00,
2014-02-06 04:22:00,43.0,41.0,29.93,ENE,70,9.0,-999.0,93,-99.99,,,-99.99,,2014-02-06 12:22:00,
2014-02-06 04:32:00,43.0,41.0,29.93,ENE,70,9.0,-999.0,93,-99.99,,,-99.99,,2014-02-06 12:32:00,
2014-02-06 04:42:00,43.0,41.0,29.93,ENE,70,9.0,-999.0,93,-99.99,,,-99.99,,2014-02-06 12:42:00,
2014-02-06 04:53:00,43.0,41.0,29.93,ENE,70,9.0,-999.0,93,-99.99,,,-99.99,,2014-02-06 12:53:00,
2014-02-06 05:21:00,43.0,41.0,29.93,ENE,60,8.0,-999.0,93,-99.99,,,-99.99,,2014-02-06 13:21:00,
2014-02-06 05:32:00,43.0,41.0,29.93,ENE,60,8.0,-999.0,93,-99.99,,,-99.99,,2014-02-06 13:32:00,
2014-02-06 05:42:00,43.0,41.0,29.93,ENE,60,8.0,-999.0,93,-99.99,,,-99.99,,2014-02-06 13:42:00,
2014-02-06 05:52:00,43.0,41.0,29.93,ENE,60,8.0,-999.0,93,-99.99,,,-99.99,,2014-02-06 13:52:00,
2014-02-06 06:22:00,43.0,41.0,29.93,ENE,70,7.0,-999.0,93,-99.99,,,-99.99,,2014-02-06 14:22:00,
2014-02-06 06:32:00,43.0,41.0,29.93,ENE,70,7.0,-999.0,93,-99.99,,,-99.99,,2014-02-06 14:32:00,
2014-02-06 06:42:00,43.0,41.0,29.93,ENE,70,7.0,-999.0,93,-99.99,,,-99.99,,2014-02-06 14:42:00,
2014-02-06 06:52:00,43.0,41.0,29.93,ENE,70,7.0,-999.0,93,-99.99,,,-99.99,,2014-02-06 14:52:00,
2014-02-06 07:22:00,43.0,41.0,29.92,ENE,60,9.0,-999.0,93,-99.99,,,-99.99,,2014-02-06 15:22:00,
2014-02-06 07:33:00,43.0,41.0,29.92,ENE,60,9.0,-999.0,93,-99.99,,,-99.99,,2014-02-06 15:33:00,
2014-02-06 07:44:00,43.0,41.0,29.92,ENE,60,9.0,-999.0,93,-99.99,,,-99.99,,2014-02-06 15:44:00,
2014-02-06 07:53:00,43.0,41.0,29.92,ENE,60,9.0,-999.0,93,-99.99,,,-99.99,,2014-02-06 15:53:00,
2014-02-06 08:42:00,43.0,41.0,29.94,NE,50,6.0,-999.0,93,-99.99,,,-99.99,,2014-02-06 16:42:00,
2014-02-06 08:53:00,43.0,41.0,29.94,NE,50,6.0,-999.0,93,-99.99,,,-99.99,,2014-02-06 16:53:00,
2014-02-06 09:22:00,43.0,39.0,29.96,ENE,60,7.0,-999.0,86,-99.99,,,-99.99,,2014-02-06 17:22:00,
2014-02-06 09:33:00,43.0,39.0,29.96,ENE,60,7.0,-999.0,86,-99.99,,,-99.99,,2014-02-06 17:33:00,
2014-02-06 09:42:00,43.0,39.0,29.96,ENE,60,7.0,-999.0,86,-99.99,,,-99.99,,2014-02-06 17:42:00,
2014-02-06 09:52:00,43.0,39.0,29.96,ENE,60,7.0,-999.0,86,-99.99,,,-99.99,,2014-02-06 17:52:00,
2014-02-06 10:22:00,45.0,43.0,29.97,ENE,60,7.0,-999.0,93,-99.99,,,-99.99,,2014-02-06 18:22:00,
2014-02-06 10:33:00,45.0,43.0,29.97,ENE,60,7.0,-999.0,93,-99.99,,,-99.99,,2014-02-06 18:33:00,
2014-02-06 10:42:00,45.0,43.0,29.97,ENE,60,7.0,-999.0,93,-99.99,,,-99.99,,2014-02-06 18:42:00,
2014-02-06 10:52:00,45.0,43.0,29.97,ENE,60,7.0,-999.0,93,-99.99,,,-99.99,,2014-02-06 18:52:00,
2014-02-06 11:22:00,46.0,45.0,29.97,East,80,9.0,-999.0,93,-99.99,,,-99.99,,2014-02-06 19:22:00,
2014-02-06 11:32:00,46.0,45.0,29.97,East,80,9.0,-999.0,93,-99.99,,,-99.99,,2014-02-06 19:32:00,
2014-02-06 11:42:00,46.0,45.0,29.97,East,80,9.0,-999.0,93,-99.99,,,-99.99,,2014-02-06 19:42:00,
2014-02-06 11:52:00,46.0,45.0,29.97,East,80,9.0,-999.0,93,-99.99,,,-99.99,,2014-02-06 19:52:00,
2014-02-06 12:22:00,48.0,45.0,29.96,East,80,8.0,-999.0,87,-99.99,,,-99.99,,2014-02-06 20:22:00,
2014-02-06 12:32:00,48.0,45.0,29.96,East,80,8.0,-999.0,87,-99.99,,,-99.99,,2014-02-06 20:32:00,
2014-02-06 12:42:00,48.0,45.0,29.96,East,80,8.0,-999.0,87,-99.99,,,-99.99,,2014-02-06 20:42:00,
2014-02-06 12:53:00,48.0,45.0,29.96,East,80,8.0,-999.0,87,-99.99,,,-99.99,,2014-02-06 20:53:00,
2014-02-06 13:43:00,50.0,46.0,29.96,North,0,0.0,-999.0,87,-99.99,,,-99.99,,2014-02-06 21:43:00,
2014-02-06 13:52:00,50.0,46.0,29.96,North,0,0.0,-999.0,87,-99.99,,,-99.99,,2014-02-06 21:52:00,
2014-02-06 14:23:00,48.0,45.0,29.94,SE,130,6.0,-999.0,87,-99.99,,,-99.99,,2014-02-06 22:23:00,
2014-02-06 14:33:00,48.0,45.0,29.94,SE,130,6.0,-999.0,87,-99.99,,,-99.99,,2014-02-06 22:33:00,
2014-02-06 14:42:00,48.0,45.0,29.94,SE,130,6.0,-999.0,87,-99.99,,,-99.99,,2014-02-06 22:42:00,
2014-02-06 14:53:00,48.0,45.0,29.94,SE,130,6.0,-999.0,87,-99.99,,,-99.99,,2014-02-06 22:53:00,
2014-02-06 15:22:00,48.0,45.0,29.94,SSE,150,6.0,-999.0,87,-99.99,,,-99.99,,2014-02-06 23:22:00,
2014-02-06 15:33:00,48.0,45.0,29.94,SSE,150,6.0,-999.0,87,-99.99,,,-99.99,,2014-02-06 23:33:00,
2014-02-06 15:42:00,48.0,45.0,29.94,SSE,150,6.0,-999.0,87,-99.99,,,-99.99,,2014-02-06 23:42:00,
2014-02-06 15:53:00,48.0,45.0,29.94,SSE,150,6.0,-999.0,87,-99.99,,,-99.99,,2014-02-06 23:53:00,
2014-02-06 16:42:00,48.0,46.0,29.94,SE,140,6.0,-999.0,93,-99.99,,,-99.99,,2014-02-07 00:42:00,
2014-02-06 16:52:00,48.0,46.0,29.94,SE,140,6.0,-999.0,93,-99.99,,,-99.99,,2014-02-07 00:52:00,
2014-02-06 17:22:00,48.0,45.0,29.95,SE,140,6.0,-999.0,87,-99.99,,,-99.99,,2014-02-07 01:22:00,
2014-02-06 17:32:00,48.0,45.0,29.95,SE,140,6.0,-999.0,87,-99.99,,,-99.99,,2014-02-07 01:32:00,
2014-02-06 17:42:00,48.0,45.0,29.95,SE,140,6.0,-999.0,87,-99.99,,,-99.99,,2014-02-07 01:42:00,
2014-02-06 17:52:00,48.0,45.0,29.95,SE,140,6.0,-999.0,87,-99.99,,,-99.99,,2014-02-07 01:52:00,
2014-02-06 18:22:00,48.0,45.0,29.97,SSE,150,5.0,-999.0,87,-99.99,,,-99.99,,2014-02-07 02:22:00,
2014-02-06 18:32:00,48.0,45.0,29.97,SSE,150,5.0,-999.0,87,-99.99,,,-99.99,,2014-02-07 02:32:00,
2014-02-06 18:42:00,48.0,45.0,29.97,SSE,150,5.0,-999.0,87,-99.99,,,-99.99,,2014-02-07 02:42:00,
2014-02-06 18:52:00,48.0,45.0,29.97,SSE,150,5.0,-999.0,87,-99.99,,,-99.99,,2014-02-07 02:52:00,
2014-02-06 19:22:00,48.0,46.0,29.97,SSE,160,6.0,-999.0,93,-99.99,,,-99.99,,2014-02-07 03:22:00,
2014-02-06 19:33:00,48.0,46.0,29.97,SSE,160,6.0,-999.0,93,-99.99,,,-99.99,,2014-02-07 03:33:00,
2014-02-06 19:43:00,48.0,46.0,29.97,SSE,160,6.0,-999.0,93,-99.99,,,-99.99,,2014-02-07 03:43:00,
2014-02-06 19:53:00,48.0,46.0,29.97,SSE,160,6.0,-999.0,93,-99.99,,,-99.99,,2014-02-07 03:53:00,
2014-02-06 20:23:00,48.0,46.0,30.00,North,0,0.0,-999.0,93,-99.99,,,-99.99,,2014-02-07 04:23:00,
2014-02-06 20:33:00,48.0,46.0,30.00,North,0,0.0,-999.0,93,-99.99,,,-99.99,,2014-02-07 04:33:00,
2014-02-06 20:43:00,48.0,46.0,30.00,North,0,0.0,-999.0,93,-99.99,,,-99.99,,2014-02-07 04:43:00,
2014-02-06 20:52:00,48.0,46.0,30.00,North,0,0.0,-999.0,93,-99.99,,,-99.99,,2014-02-07 04:52:00,